Flag for Germany Weather past 2 weeks in Mayen, Rhineland-Palatinate, Germany

Now
63 °F

Mild.


Feels Like: 63 °F
Forecast: 49 / 59 °F
Wind: 5 mph from West

Location: Buechel

Current Time: May 24, 2015 at 4:15:41 PM

Latest Report: May 24, 2015 at 3:20 PM


Visibility: 6 mi

Pressure: 30.09 "Hg

Humidity: 59%

Dew point: 48 °F

Location of MayenLocation

Historic Weather in Mayen — Graph

°F

Mayen temperature yesterday

Maximum temperature yesterday: 61 °F (at 1:20 PM)
Minimum temperature yesterday: 50 °F (at 5:20 AM)
Average temperature yesterday: 56 °F

Past Weeks' High & Low Weather Summary

 TemperatureHumidityPressure
High75 °F (May 12, 2:20 PM)100% (May 15, 7:20 AM)30.33 "Hg (May 15, 7:20 AM)
Low37 °F (May 21, 5:20 AM)31% (May 11, 5:20 PM)29.71 "Hg (May 18, 7:20 PM)
Average54 °F66%30.09 "Hg
* Reported May 9 2:20 PM — May 24 2:20 PM, Mayen, Weather by CustomWeather, © 2015

Note: Actual official high and low records may vary slightly from our data, if they occured in-between our weather recording intervals... More about our weather records

Advertising

Mayen weather history for previous 24 hours

 ConditionsComfort  
Time TempWeatherWind HumidityBarometerVisibility
2:20 PM
Sun, May 24
63 °FMild.6 mph56%30.09 "Hg6 mi
1:20 PM61 °FCool.3 mph63%30.09 "Hg4 mi
12:20 PM59 °FCool.5 mph72%30.09 "Hg4 mi
11:20 AM55 °FCool.6 mph77%30.12 "Hg4 mi
10:20 AM54 °FCool.6 mph82%30.12 "Hg4 mi
9:20 AM54 °FCool.6 mph82%30.12 "Hg4 mi
8:20 AM54 °FCool.5 mph82%30.12 "Hg4 mi
7:20 AM50 °FCool.5 mph94%30.09 "Hg3 mi
6:20 AM50 °FCool.5 mph94%30.09 "Hg3 mi
5:20 AM50 °FCool.3 mph94%30.09 "Hg3 mi
4:20 AM52 °FCool.5 mph88%30.09 "Hg3 mi
3:20 AM52 °FCool.6 mph88%30.12 "Hg3 mi
2:20 AM52 °FCool.7 mph88%30.12 "Hg4 mi
1:20 AM54 °FCool.7 mph82%30.12 "Hg4 mi
12:20 AM54 °FCool.7 mph88%30.15 "Hg3 mi
11:20 PM
Sat, May 23
54 °FCool.7 mph88%30.12 "Hg3 mi
10:20 PM55 °FCool.8 mph82%30.12 "Hg4 mi
9:20 PM57 °FCool.9 mph77%30.12 "Hg4 mi
8:20 PM61 °FRefreshingly cool.8 mph55%30.09 "Hg6 mi
7:20 PM61 °FRefreshingly cool.5 mph52%30.09 "Hg6 mi
6:20 PM61 °FRefreshingly cool.8 mph52%30.09 "Hg6 mi
5:20 PM61 °FRefreshingly cool.7 mph55%30.12 "Hg6 mi
4:20 PM61 °FRefreshingly cool.7 mph52%30.12 "Hg5 mi
Weather by CustomWeather, © 2015

See weather overviewHow to use our weather pages